Location: Borojevi?i
(45.0486°N, 16.2297°E)
Time: 05:37:50
(UTC+00:00)

Cosmos 1821 Rocket - Pass Details

Date: 08 August 2020
Orbit: 946 x 1004 km, 82.9° (Epoch: 19 September)

Event Time Altitude Azimuth Distance (km) Brightness Sun altitude
Rises 19:43:06 0° 192° (SSW) 3,608 6.7 -14.4°
Reaches altitude 10° 19:45:35 10° 194° (SSW) 2,672 6.0 -14.8°
Maximum altitude 19:51:41 74° 279° (W) 1,000 4.2 -15.6°
Drops below altitude 10° 19:57:55 10° 5° (N) 2,726 6.9 -16.4°
Sets 20:00:29 0° 7° (N) 3,686 7.6 -16.7°
